TimeEST,TemperatureF,Dew PointF,Humidity,Sea Level PressureIn,VisibilityMPH,Wind Direction,Wind SpeedMPH,Gust SpeedMPH,PrecipitationIn,Events,Conditions,WindDirDegrees,DateUTC
12:53 AM,30.0,23.0,75,29.90,10.0,NW,10.4,-,N/A,,Overcast,310,2013-02-15 05:53:00
1:42 AM,28.4,19.4,69,29.89,10.0,WNW,12.7,-,N/A,,Scattered Clouds,300,2013-02-15 06:42:00
1:53 AM,28.0,19.9,72,29.92,10.0,WNW,9.2,-,N/A,,Clear,300,2013-02-15 06:53:00
2:53 AM,26.1,19.9,78,29.94,10.0,NW,11.5,-,N/A,,Mostly Cloudy,310,2013-02-15 07:53:00
3:37 AM,26.6,15.8,64,29.92,10.0,WNW,11.5,-,N/A,,Mostly Cloudy,290,2013-02-15 08:37:00
3:53 AM,25.0,16.0,69,29.96,10.0,WNW,16.1,21.9,N/A,,Mostly Cloudy,290,2013-02-15 08:53:00
4:53 AM,23.0,14.0,68,29.99,10.0,WNW,9.2,-,N/A,,Overcast,300,2013-02-15 09:53:00
5:53 AM,21.9,14.0,72,30.02,10.0,WNW,8.1,-,N/A,,Mostly Cloudy,300,2013-02-15 10:53:00
6:53 AM,23.0,15.1,72,30.04,10.0,WNW,9.2,-,N/A,,Overcast,300,2013-02-15 11:53:00
7:53 AM,23.0,15.1,72,30.06,10.0,West,6.9,-,N/A,,Overcast,280,2013-02-15 12:53:00
8:53 AM,24.1,12.9,62,30.08,10.0,WNW,13.8,20.7,N/A,,Overcast,300,2013-02-15 13:53:00
9:53 AM,24.1,12.0,60,30.09,10.0,NW,11.5,-,N/A,,Mostly Cloudy,310,2013-02-15 14:53:00
10:00 AM,24.8,12.2,59,30.06,10.0,WNW,8.1,-,N/A,,Overcast,300,2013-02-15 15:00:00
10:10 AM,24.8,12.2,59,30.06,10.0,WNW,13.8,-,N/A,,Overcast,290,2013-02-15 15:10:00
10:53 AM,26.1,12.0,55,30.11,10.0,NW,12.7,19.6,N/A,,Overcast,310,2013-02-15 15:53:00
11:53 AM,25.0,10.9,55,30.11,10.0,WNW,13.8,17.3,N/A,,Overcast,300,2013-02-15 16:53:00
12:53 PM,26.1,10.0,51,30.11,10.0,NW,10.4,-,N/A,,Overcast,310,2013-02-15 17:53:00
1:53 PM,27.0,10.9,51,30.10,10.0,West,10.4,-,N/A,,Overcast,280,2013-02-15 18:53:00
2:53 PM,27.0,10.9,51,30.09,10.0,WNW,8.1,-,N/A,,Overcast,300,2013-02-15 19:53:00
3:53 PM,27.0,10.9,51,30.11,10.0,West,9.2,-,N/A,,Overcast,270,2013-02-15 20:53:00
4:53 PM,26.1,12.0,55,30.12,10.0,West,8.1,-,N/A,,Overcast,280,2013-02-15 21:53:00
5:53 PM,26.1,10.9,53,30.13,10.0,West,10.4,-,N/A,,Overcast,260,2013-02-15 22:53:00
6:53 PM,25.0,12.0,58,30.14,10.0,West,10.4,-,N/A,,Overcast,270,2013-02-15 23:53:00
7:53 PM,24.1,12.9,62,30.15,10.0,West,15.0,-,N/A,,Overcast,280,2013-02-16 00:53:00
8:53 PM,23.0,12.0,63,30.16,10.0,West,13.8,-,N/A,,Overcast,280,2013-02-16 01:53:00
9:53 PM,21.0,12.9,71,30.17,10.0,NW,8.1,-,N/A,,Clear,310,2013-02-16 02:53:00
10:53 PM,19.9,12.9,74,30.15,10.0,West,3.5,-,N/A,,Overcast,280,2013-02-16 03:53:00
11:53 PM,19.9,12.0,71,30.14,10.0,West,3.5,-,N/A,,Overcast,280,2013-02-16 04:53:00